RH
44 42 38 37 37 44 67 74 75 68 66 61 72 86 93 94 98 86 78 74 71 69 68 68 66 70 76 75 84 81 82 78 73 68 61 58 73 92
53 49 45 41 39 45 52 67 78 73 82 60 76 88 89 90 97 89 83 82 75 73 74 72 68 62 69 72 80 83 85 86 79 73 65 63 57 64
56 52 51 47 45 51 57 65 80 72 77 82 79 90 92 92 90 93 90 84 78 75 78 76 73 70 65 70 75 79 80 83 83 79 75 67 66 59
63 58 54 51 45 47 49 65 89 98 83 83 82 78 91 97 90 94 87 80 83 82 80 85 79 79 72 69 70 76 78 79 82 78 79 77 73 71
67 65 61 55 53 50 56 56 60 86 94 87 94 97 91 91 95 92 87 81 80 80 77 82 83 84 80 75 71 74 75 76 78 80 83 80 80 80
71 69 68 67 64 56 56 54 60 72 85 89 98 99 95 99 98 96 93 84 81 79 83 88 89 91 88 82 72 73 74 71 77 79 83 83 82 86
86 82 82 82 72 73 67 63 59 66 80 90 95 94 85 86 87 90 91 85 80 89 88 92 90 97 87 88 78 77 78 73 71 82 86 89 88 89
96 92 91 88 87 87 80 74 68 61 64 61 75 77 84 89 88 95 92 88 86 78 88 92 96 94 95 89 83 78 84 88 77 78 90 90 92 91
80 90 90 91 88 87 90 81 80 77 70 76 88 74 81 93 92 90 89 93 93 79 79 83 85 83 84 86 91 90 75 85 86 84 88 92 92 90
26 35 47 55 65 73 78 73 77 87 90 83 75 69 79 91 83 91 85 84 83 80 78 82 94 79 76 80 88 92 85 83 89 92 92 89 90 88
8 8 11 14 19 25 36 55 64 67 78 81 84 81 72 63 63 67 78 79 82 81 80 81 86 80 90 75 82 85 90 95 93 95 97 97 91 90
8 8 8 8 8 8 11 15 19 27 37 45 58 67 71 74 72 66 68 73 85 82 80 81 79 79 81 76 92 88 93 98 99 99 96 97 99 97
8 8 7 7 7 7 7 8 8 10 13 17 20 28 39 45 49 55 63 67 70 74 74 74 78 83 80 79 86 88 94 98 99 99 99 98 99 99
9 9 8 7 7 7 7 7 7 7 8 8 11 12 14 22 31 36 43 46 49 53 56 63 74 80 81 80 87 91 93 96 97 98 95 97 99 99
10 10 9 9 9 8 8 8 8 8 8 8 10 14 16 15 16 18 25 30 43 41 45 46 45 48 62 73 82 82 84 89 95 97 97 98 97 98
15 15 13 13 11 11 10 9 9 10 11 11 10 10 10 13 17 18 19 19 29 33 33 35 41 50 41 44 54 65 76 88 91 95 97 97 97 97
25 25 24 23 23 23 22 21 17 14 16 18 20 16 15 16 16 17 18 18 18 18 24 27 28 39 47 47 45 46 55 58 66 75 78 85 92 96
31 29 28 27 26 25 25 24 24 23 23 23 23 22 22 21 21 19 19 19 18 17 17 18 20 26 36 48 45 45 51 48 47 52 61 66 69 71
31 30 29 28 28 27 25 25 24 24 24 25 25 24 23 23 23 22 23 21 19 18 19 20 19 21 22 32 37 38 42 44 47 45 47 48 55 60
31 30 29 30 30 30 31 28 31 28 26 26 27 26 25 26 30 29 30 25 25 27 26 26 26 26 22 24 29 30 33 30 40 47 49 46 43 44
33 31 30 29 29 30 29 30 32 36 34 34 34 33 29 31 33 33 33 31 29 31 30 29 29 23 25 29 31 35 37 30 27 30 37 46 48 42
34 32 31 30 29 28 30 30 32 37 37 36 35 35 34 35 34 34 34 34 33 32 31 30 30 30 30 33 38 38 38 38 31 30 32 35 38 44
35 32 31 31 31 33 32 31 30 30 32 37 37 37 37 37 37 37 36 36 36 35 34 33 33 33 32 34 40 40 41 41 39 36 39 36 39 41